TimeCDT,TemperatureF,Dew PointF,Humidity,Sea Level PressureIn,VisibilityMPH,Wind Direction,Wind SpeedMPH,Gust SpeedMPH,PrecipitationIn,Events,Conditions,WindDirDegrees,DateUTC
12:03 AM,62.6,62.6,100,30.02,1.5,Calm,Calm,-,N/A,,Clear,0,2013-10-11 05:03:00
12:08 AM,62.6,62.6,100,30.02,1.2,Calm,Calm,-,N/A,,Clear,0,2013-10-11 05:08:00
12:13 AM,62.6,62.6,100,30.02,1.0,Calm,Calm,-,N/A,,Clear,0,2013-10-11 05:13:00
12:18 AM,62.6,62.6,100,30.02,0.5,Calm,Calm,-,N/A,Fog,Fog,0,2013-10-11 05:18:00
12:33 AM,62.6,60.8,94,30.02,0.8,Calm,Calm,-,N/A,,Clear,0,2013-10-11 05:33:00
12:38 AM,62.6,60.8,94,30.02,1.5,Calm,Calm,-,N/A,,Clear,0,2013-10-11 05:38:00
12:43 AM,60.8,60.8,100,30.02,0.8,Calm,Calm,-,N/A,,Clear,0,2013-10-11 05:43:00
12:48 AM,62.6,60.8,94,30.02,0.8,Calm,Calm,-,N/A,,Clear,0,2013-10-11 05:48:00
12:53 AM,62.6,62.6,100,30.02,3.0,Calm,Calm,-,N/A,,Clear,0,2013-10-11 05:53:00
12:58 AM,62.2,61.9,99,30.03,2.5,Calm,Calm,-,N/A,,Clear,0,2013-10-11 05:58:00
1:03 AM,62.6,62.6,100,30.02,1.0,Calm,Calm,-,N/A,,Clear,0,2013-10-11 06:03:00
1:06 AM,60.8,60.8,100,30.02,0.8,Calm,Calm,-,N/A,Rain,Light Rain,0,2013-10-11 06:06:00
1:11 AM,60.8,60.8,100,30.02,1.2,WSW,1.2,-,N/A,Rain,Light Rain,250,2013-10-11 06:11:00
1:12 AM,60.8,60.8,100,30.02,1.5,WSW,1.2,-,N/A,,Clear,240,2013-10-11 06:12:00
1:17 AM,60.8,60.8,100,30.02,6.0,SW,1.2,-,N/A,,Clear,220,2013-10-11 06:17:00
1:52 AM,60.8,60.8,100,30.02,2.5,WNW,1.2,-,N/A,,Clear,300,2013-10-11 06:52:00
1:58 AM,60.8,60.6,99,30.03,2.5,Calm,Calm,-,0.00,,Clear,0,2013-10-11 06:58:00
2:03 AM,60.8,59.0,94,30.02,6.0,Calm,Calm,-,N/A,,Clear,0,2013-10-11 07:03:00
2:13 AM,60.8,60.8,100,30.02,2.0,Calm,Calm,-,N/A,,Clear,0,2013-10-11 07:13:00
2:18 AM,60.8,60.8,100,30.02,1.5,WSW,2.3,-,N/A,,Clear,240,2013-10-11 07:18:00
2:23 AM,60.8,59.0,94,30.02,2.5,WSW,1.2,-,N/A,,Clear,250,2013-10-11 07:23:00
2:28 AM,60.8,59.0,94,30.02,6.0,WSW,1.2,-,N/A,,Clear,240,2013-10-11 07:28:00
2:38 AM,60.8,59.0,94,30.02,2.0,WNW,1.2,-,N/A,,Clear,300,2013-10-11 07:38:00
2:43 AM,60.8,59.0,94,30.02,1.5,Calm,Calm,-,N/A,,Clear,0,2013-10-11 07:43:00
2:48 AM,60.8,59.0,94,30.02,3.0,Calm,Calm,-,N/A,,Clear,0,2013-10-11 07:48:00
2:58 AM,60.1,59.7,99,30.03,3.0,SW,2.3,-,N/A,,Clear,220,2013-10-11 07:58:00
3:03 AM,60.8,59.0,94,30.02,1.5,SW,2.3,-,N/A,,Clear,230,2013-10-11 08:03:00
3:08 AM,59.0,59.0,100,30.02,0.8,SW,3.5,-,N/A,,Clear,230,2013-10-11 08:08:00
3:13 AM,60.8,59.0,94,30.02,0.5,SW,2.3,-,N/A,Fog,Fog,230,2013-10-11 08:13:00
3:18 AM,60.8,60.8,100,30.02,0.8,WSW,2.3,-,N/A,,Clear,240,2013-10-11 08:18:00
3:23 AM,59.0,59.0,100,30.02,0.8,WSW,2.3,-,N/A,,Clear,240,2013-10-11 08:23:00
3:28 AM,59.0,59.0,100,30.01,1.0,WSW,1.2,-,N/A,,Clear,250,2013-10-11 08:28:00
3:33 AM,59.0,59.0,100,30.02,1.2,Calm,Calm,-,N/A,,Clear,0,2013-10-11 08:33:00
3:38 AM,59.0,59.0,100,30.02,1.0,Calm,Calm,-,N/A,,Clear,0,2013-10-11 08:38:00
3:43 AM,59.0,59.0,100,30.02,0.8,Calm,Calm,-,N/A,,Clear,0,2013-10-11 08:43:00
3:53 AM,59.0,59.0,100,30.02,1.0,Calm,Calm,-,N/A,,Clear,0,2013-10-11 08:53:00
3:58 AM,59.0,59.0,100,30.03,1.8,Calm,Calm,-,N/A,,Clear,0,2013-10-11 08:58:00
4:03 AM,59.0,59.0,100,30.02,1.0,Calm,Calm,-,N/A,,Clear,0,2013-10-11 09:03:00
4:08 AM,59.0,59.0,100,30.02,0.5,Calm,Calm,-,N/A,Fog,Fog,0,2013-10-11 09:08:00
4:23 AM,59.0,59.0,100,30.02,0.2,Calm,Calm,-,N/A,Fog,Fog,0,2013-10-11 09:23:00
4:28 AM,59.0,59.0,100,30.02,0.5,Calm,Calm,-,N/A,Fog,Fog,0,2013-10-11 09:28:00
4:58 AM,59.0,59.0,100,30.04,0.2,Calm,Calm,-,N/A,Fog,Fog,0,2013-10-11 09:58:00
5:03 AM,59.0,59.0,100,30.03,0.5,Calm,Calm,-,N/A,Fog,Fog,0,2013-10-11 10:03:00
5:13 AM,59.0,59.0,100,30.03,0.5,Calm,Calm,-,N/A,Fog,Fog,0,2013-10-11 10:13:00
5:18 AM,59.0,59.0,100,30.04,0.2,Calm,Calm,-,N/A,Fog,Fog,0,2013-10-11 10:18:00
5:23 AM,59.0,59.0,100,30.04,0.5,Calm,Calm,-,N/A,Fog,Fog,0,2013-10-11 10:23:00
5:28 AM,59.0,59.0,100,30.04,0.2,Calm,Calm,-,N/A,Fog,Fog,0,2013-10-11 10:28:00
5:58 AM,59.0,59.0,100,30.05,0.2,Calm,Calm,-,N/A,Fog,Fog,0,2013-10-11 10:58:00
6:03 AM,59.0,59.0,100,30.04,0.2,WNW,1.2,-,N/A,Fog,Fog,300,2013-10-11 11:03:00
6:08 AM,59.0,59.0,100,30.05,0.2,Calm,Calm,-,N/A,Fog,Fog,0,2013-10-11 11:08:00
6:23 AM,59.0,59.0,100,30.05,0.2,Calm,Calm,-,N/A,Fog,Fog,0,2013-10-11 11:23:00
6:33 AM,59.0,59.0,100,30.05,0.2,WSW,1.2,-,N/A,Fog,Fog,250,2013-10-11 11:33:00
6:48 AM,59.0,59.0,100,30.05,0.2,SW,1.2,-,N/A,Fog,Fog,220,2013-10-11 11:48:00
6:58 AM,58.6,58.3,99,30.07,0.2,Calm,Calm,-,N/A,Fog,Fog,0,2013-10-11 11:58:00
7:03 AM,59.0,59.0,100,30.06,0.2,Calm,Calm,-,N/A,Fog,Fog,0,2013-10-11 12:03:00
7:18 AM,59.0,59.0,100,30.06,0.5,SW,1.2,-,N/A,Fog,Fog,230,2013-10-11 12:18:00
7:28 AM,59.0,59.0,100,30.06,0.2,Calm,Calm,-,N/A,Fog,Fog,0,2013-10-11 12:28:00
7:38 AM,59.0,59.0,100,30.07,0.2,WSW,2.3,-,N/A,Fog,Fog,240,2013-10-11 12:38:00
7:48 AM,60.8,59.0,94,30.07,0.2,WNW,2.3,-,N/A,Fog,Fog,300,2013-10-11 12:48:00
7:53 AM,60.8,60.8,100,30.07,0.5,NNW,2.3,-,N/A,Fog,Fog,330,2013-10-11 12:53:00
7:58 AM,60.4,60.1,99,30.09,0.8,NW,2.3,-,N/A,,Mist,320,2013-10-11 12:58:00
8:03 AM,60.8,60.8,100,30.08,1.2,NW,2.3,-,N/A,,Overcast,310,2013-10-11 13:03:00
8:08 AM,60.8,60.8,100,30.08,1.5,NW,2.3,-,N/A,,Overcast,310,2013-10-11 13:08:00
8:18 AM,60.8,60.8,100,30.09,0.5,NNW,2.3,-,N/A,Fog,Fog,340,2013-10-11 13:18:00
8:23 AM,60.8,60.8,100,30.09,0.2,NW,2.3,-,N/A,Fog,Fog,320,2013-10-11 13:23:00
8:33 AM,60.8,60.8,100,30.09,0.2,NNW,1.2,-,N/A,Fog,Fog,330,2013-10-11 13:33:00
8:48 AM,62.6,62.6,100,30.09,0.2,North,1.2,-,N/A,Fog,Fog,360,2013-10-11 13:48:00
8:53 AM,62.6,62.6,100,30.09,0.5,Calm,Calm,-,N/A,Fog,Fog,0,2013-10-11 13:53:00
8:58 AM,63.0,62.6,99,30.10,0.5,North,1.2,-,N/A,Fog,Fog,360,2013-10-11 13:58:00
9:03 AM,62.6,62.6,100,30.09,1.0,NNW,1.2,-,N/A,,Mist,330,2013-10-11 14:03:00
9:08 AM,62.6,62.6,100,30.09,4.0,WNW,1.2,-,N/A,,Overcast,300,2013-10-11 14:08:00
9:33 AM,64.4,64.4,100,30.09,10.0,Calm,Calm,-,N/A,,Scattered Clouds,0,2013-10-11 14:33:00
9:58 AM,66.4,66.4,100,30.10,10.0,Variable,1.2,-,N/A,,Clear,0,2013-10-11 14:58:00
10:58 AM,76.3,66.0,70,30.10,10.0,NW,6.9,-,N/A,,Clear,310,2013-10-11 15:58:00
11:58 AM,80.2,63.3,56,30.08,10.0,Variable,1.2,-,N/A,,Mostly Cloudy,0,2013-10-11 16:58:00
12:58 PM,81.3,61.2,50,30.05,10.0,NW,8.1,-,N/A,,Partly Cloudy,310,2013-10-11 17:58:00
1:58 PM,82.2,59.2,45,30.03,10.0,Variable,4.6,-,N/A,,Clear,0,2013-10-11 18:58:00
2:58 PM,83.3,59.5,44,30.01,10.0,Variable,1.2,-,N/A,,Clear,0,2013-10-11 19:58:00
3:58 PM,82.0,59.9,47,30.00,10.0,NW,5.8,-,N/A,,Clear,310,2013-10-11 20:58:00
4:58 PM,81.5,61.0,50,29.99,10.0,NW,5.8,-,N/A,,Clear,310,2013-10-11 21:58:00
5:58 PM,77.2,62.6,61,30.00,10.0,NW,2.3,-,N/A,,Clear,320,2013-10-11 22:58:00
6:58 PM,70.2,63.7,80,30.00,10.0,Calm,Calm,-,N/A,,Clear,0,2013-10-11 23:58:00
7:58 PM,67.5,63.3,87,30.01,10.0,Calm,Calm,-,N/A,,Clear,0,2013-10-12 00:58:00
8:58 PM,65.5,63.1,92,30.02,10.0,WSW,2.3,-,N/A,,Clear,240,2013-10-12 01:58:00
9:58 PM,64.2,63.1,96,30.03,10.0,Calm,Calm,-,N/A,,Clear,0,2013-10-12 02:58:00
10:58 PM,62.8,62.2,98,30.03,9.0,SW,2.3,-,N/A,,Clear,220,2013-10-12 03:58:00
11:26 PM,62.6,62.6,100,30.01,9.0,Calm,Calm,-,N/A,,Light Drizzle,0,2013-10-12 04:26:00
11:36 PM,62.6,60.8,94,30.02,8.0,Calm,Calm,-,N/A,,Clear,0,2013-10-12 04:36:00
11:58 PM,62.6,62.1,98,30.03,8.0,SSW,3.5,-,0.00,,Clear,200,2013-10-12 04:58:00